Main page
METAR-TAF:

METAR-TAF

Airports :

Lake City Gateway Airport

Lake City, Florida, United States

latitude: 30-10-55N, longitude: 082-34-37W, elevation: 200 ft

Current weather observation

The report was made 29 minutes ago, at 12:35 UTC
Wind 13 mph from the North/Northeast with gusts up to 21 mph
Temperature 64°F
Humidity 83%
Pressure 30.18 in. Hg
Visibility: 10 miles
Overcast at a height of 3500 ft

METAR: KLCQ 211235Z AUTO 03011G18KT 10SM OVC035 18/15 A3018 RMK AO2

Time: 09:04 (13:04 UTC)


TAF: missing

Weather observations and forecasts of more than 4000 airports (METAR and TAF reports).

The available stations are represented by yellow and red dots on the map.

Hover mouse over dot to see the name of the station.

Then click to see weather observations and forecasts.

To change the map : click on the green buttons with a black cross to zoom in, on the green button with a dash to zoom out, or on the green arrows for adjacent maps.


METAR-TAF: